Probability
0 0 0 0 0 0 0 0 0 0 0 0 0 0 0 0 0 0 0 0 0 0 0 0 0 0 0 0 0 0 0 0 0 0 0 0 0 0 0 0 0 0 0 0
0 0 0 0 0 0 0 0 0 0 0 0 0 0 0 0 0 0 0 0 0 0 0 0 0 0 0 0 0 0 0 0 0 0 0 0 0 0 0 0 0 0 0 0
0 0 0 0 0 0 0 0 0 0 0 0 0 0 0 0 0 0 0 0 0 0 0 0 0 0 0 0 0 0 0 0 0 0 0 0 0 0 0 0 0 0 0 0
0 0 0 0 0 0 0 0 0 0 0 0 0 0 0 0 0 0 0 0 0 0 0 0 0 0 0 0 0 0 0 0 0 0 0 0 0 0 0 0 0 0 0 0
0 0 0 0 0 0 0 0 0 0 0 0 0 0 0 0 0 0 0 0 0 0 0 0 0 0 0 0 0 0 0 0 0 0 0 0 0 0 0 0 0 0 0 0
0 0 0 0 0 0 0 0 0 0 0 0 0 0 0 0 0 0 0 0 0 0 0 0 0 0 0 0 0 0 0 0 0 0 0 0 0 0 0 0 0 0 0 0
0 0 0 0 0 0 0 0 0 0 0 0 0 0 0 0 0 0 0 0 0 0 0 0 0 0 0 0 0 0 0 0 0 0 0 0 0 0 0 0 0 0 0 0
0 0 0 0 0 0 0 0 0 0 0 0 0 0 0 0 0 0 0 0 0 0 0 0 0 0 0 0 0 0 0 0 0 0 0 0 0 0 0 0 0 0 0 0
0 0 0 0 0 0 0 0 0 0 0 0 0 0 0 0 0 0 0 0 0 0 0 0 0 0 0 0 0 0 0 0 0 0 0 0 0 0 0 0 0 0 0 0
0 0 0 0 0 0 0 0 0 0 0 0 0 0 0 0 0 0 0 0 0 0 0 0 0 0 0 0 0 0 0 0 0 0 0 0 0 0 0 0 0 0 0 0
0 0 0 0 0 0 0 0 0 0 0 0 0 0 0 0 0 0 0 0 0 0 0 0 0 0 0 0 0 0 0 0 0 0 0 0 0 0 0 0 0 0 0 0
0 0 0 0 0 0 0 0 0 0 0 0 0 0 0 0 0 0 0 0 0 0 0 0 0 0 0 0 0 0 0 0 0 0 0 0 0 0 0 0 0 0 0 0
0 0 0 0 0 0 0 0 0 0 0 0 0 0 0 0 0 0 0 0 0 0 0 0 0 0 0 0 0 0 0 0 0 0 0 0 0 0 0 0 0 0 0 0
0 0 0 0 0 0 0 0 0 0 0 0 0 0 0 0 0 0 0 0 0 0 0 0 0 0 0 0 0 0 0 0 0 0 0 0 0 0 0 0 0 0 0 0
0 0 0 0 0 0 0 0 0 0 0 0 0 0 0 0 0 0 0 0 0 0 0 0 0 0 0 0 0 0 0 0 0 0 0 0 0 0 0 0 0 0 0 0
0 0 0 0 0 0 0 0 0 0 0 0 0 0 0 0 0 0 0 0 0 0 0 0 0 0 0 0 0 0 0 0 0 0 0 0 0 0 0 0 0 0 0 0
0 0 0 0 0 0 0 0 0 0 0 0 0 0 0 0 0 0 0 0 0 0 0 0 0 0 0 0 0 0 0 0 0 0 0 0 0 0 0 0 0 0 0 0
0 0 0 0 0 0 0 0 0 0 0 0 0 0 0 0 0 0 0 0 0 0 0 0 0 0 0 0 0 0 0 0 0 0 0 0 0 0 0 0 0 0 0 0
0 0 0 0 0 0 0 0 0 0 0 0 0 0 0 0 0 0 0 0 0 0 0 0 0 0 0 0 0 0 0 0 0 0 0 0 0 0 0 0 0 0 0 0
0 0 0 0 0 0 0 0 0 0 0 0 0 0 0 0 0 0 0 0 0 0 0 0 0 0 0 0 0 0 0 0 0 0 0 0 0 0 0 0 0 0 0 0
0 0 0 0 0 0 0 0 0 0 0 0 0 0 0 0 0 0 0 0 0 0 0 0 0 0 0 0 0 0 0 0 0 0 0 0 0 0 0 0 0 0 0 0
0 0 0 0 0 0 0 0 0 0 0 0 0 0 0 0 0 0 0 0 0 0 0 0 0 0 0 0 0 0 0 0 0 0 0 0 0 0 0 0 0 0 0 0
0 0 0 0 0 0 0 0 0 0 0 0 0 0 0 0 0 0 0 0 0 0 0 0 0 0 0 0 0 0 0 0 0 0 0 0 0 0 0 0 0 0 0 0
0 0 0 0 0 0 0 0 0 0 0 0 0 0 0 0 0 0 0 0 0 0 0 0 0 0 0 0 0 0 0 0 0 0 0 0 0 0 0 0 0 0 0 0
0 0 0 0 0 0 0 0 0 0 0 0 0 0 0 0 0 0 0 0 0 0 0 0 0 0 0 0 0 0 0 0 0 0 0 0 0 0 0 0 0 0 0 0
0 0 0 0 0 0 0 0 0 0 0 0 0 0 0 0 0 0 0 0 0 0 0 0 0 0 0 0 0 0 0 0 0 0 0 0 0 0 0 0 0 0 0 0
Wind_Speed
10 7 10 11 10 6 5 3 6 10 9 7 8 9 9 1 5 5 4 4 4 4 4 6 8 8 7 9 9 8 6 3 2 3 3 4 5 5 4 5 7 7 7 8
10 13 12 8 7 6 5 6 9 9 4 4 4 6 5 3 4 5 5 4 4 4 6 8 9 9 9 9 8 8 8 7 2 2 2 2 1 2 3 3 4 6 7 8
10 10 11 8 6 6 8 8 8 6 4 3 1 4 1 1 1 3 3 4 4 5 6 7 8 9 9 10 9 8 9 9 8 5 3 3 3 3 3 3 3 4 6 7
6 7 11 8 8 8 8 9 8 3 1 3 1 4 5 4 3 3 3 4 4 5 5 5 7 7 8 8 7 9 9 11 10 9 8 7 5 3 3 3 3 5 6 6
9 9 12 12 10 10 8 5 4 2 2 2 1 2 7 3 6 7 5 5 5 5 5 5 5 6 6 7 7 8 9 11 10 10 9 8 7 4 3 4 6 7 6 7
4 6 10 10 7 8 5 5 5 5 4 3 6 6 8 8 11 9 7 6 6 6 5 4 4 5 6 7 7 8 10 10 10 10 10 9 9 8 8 8 7 6 5 5
4 4 5 7 6 3 5 6 2 2 1 7 4 5 11 10 10 13 12 9 8 7 6 5 4 4 5 6 7 7 8 9 9 9 9 9 8 8 7 6 6 6 5 5
7 7 7 6 8 8 6 8 7 6 6 5 2 7 9 6 5 8 9 9 8 7 6 6 5 4 3 5 6 6 7 7 8 8 7 7 7 5 5 5 5 5 5 5
8 5 1 2 4 10 8 6 6 4 2 3 5 7 6 6 8 10 9 8 8 8 7 6 5 4 3 4 5 5 7 7 7 7 7 7 7 7 6 6 6 6 6 7
8 7 3 2 4 2 6 7 5 4 4 4 5 4 4 2 7 9 10 9 8 7 6 6 5 3 3 4 5 6 7 7 6 7 7 6 6 6 6 6 8 8 8 9
5 8 3 3 6 8 4 4 4 3 3 4 3 6 5 8 10 11 11 9 9 8 7 6 4 3 5 5 6 6 6 6 6 6 6 6 6 6 6 6 7 7 7 8
5 7 5 2 2 4 5 6 7 4 3 3 2 8 6 3 8 8 8 8 7 7 6 5 4 5 6 6 6 6 5 5 5 5 5 6 6 6 7 7 8 8 8 8
5 7 7 2 1 1 3 4 5 5 4 4 3 7 4 4 4 5 6 7 6 6 5 5 6 6 6 5 5 5 5 5 5 5 5 6 6 7 7 8 9 10 10 11
5 5 6 9 7 7 5 5 6 6 5 5 7 5 2 1 3 3 4 6 5 6 7 7 6 6 5 4 4 4 4 5 5 5 6 6 6 7 7 8 9 10 11 12
5 5 3 3 3 5 5 7 8 7 8 8 7 5 5 4 3 4 4 4 6 7 7 7 6 5 4 4 3 4 4 5 5 5 5 6 6 7 8 9 10 10 11 13
4 5 3 2 3 1 2 5 5 5 4 6 5 7 6 3 1 1 2 6 7 7 7 7 6 5 3 3 3 3 4 5 4 5 5 6 7 8 9 10 10 11 12 12
3 4 4 1 2 3 5 5 7 5 5 7 7 7 1 3 4 1 2 5 7 8 7 6 5 4 3 2 2 3 3 4 4 5 5 6 8 9 9 11 11 11 11 12
5 4 4 3 2 5 5 2 4 5 3 5 4 3 2 4 4 4 3 4 7 7 6 5 4 2 1 2 2 3 3 4 5 5 6 7 8 9 9 10 11 10 10 11
3 6 5 4 2 6 5 2 0 3 3 5 2 4 5 4 4 4 4 3 5 5 5 4 3 2 2 3 2 3 4 5 5 6 7 7 8 10 10 11 11 10 11 12
6 5 5 4 3 6 4 3 3 3 4 4 4 4 2 2 3 2 3 5 6 5 4 3 2 3 3 3 3 4 5 5 6 6 7 7 8 9 10 11 10 9 10 11
3 4 4 4 3 7 7 5 1 3 2 3 4 4 3 2 2 3 6 5 5 5 4 4 4 3 3 3 4 5 5 5 6 6 6 7 7 8 9 8 8 11 12 12
7 6 5 5 4 8 4 2 4 4 2 3 4 3 2 2 3 5 7 6 5 4 4 4 3 3 3 4 4 5 5 6 6 6 7 7 8 8 10 9 9 10 11 12
6 7 7 8 7 4 1 5 5 5 3 2 2 1 2 4 5 5 4 4 4 4 4 3 2 2 3 4 3 4 6 6 6 7 7 8 8 7 7 8 10 10 9 9
3 3 4 3 3 3 3 4 3 3 4 4 3 2 2 3 4 3 4 4 3 4 3 2 1 2 3 4 4 5 6 6 7 7 8 7 7 8 7 7 7 9 9 10
5 2 3 3 3 1 4 4 4 4 3 3 2 1 2 2 2 3 3 3 4 3 2 0 1 2 4 5 6 6 6 6 7 7 7 7 7 7 8 8 7 10 8 11
5 6 6 5 5 3 3 2 4 4 4 5 4 2 1 1 3 3 3 3 3 2 1 1 2 3 4 5 6 7 6 6 7 7 7 6 6 7 7 9 11 16 17 22
Wind_Direction
171 174 193 195 191 190 187 207 276 267 249 191 208 240 273 295 114 118 104 89 78 59 24 18 14 7 13 17 19 18 17 335 197 175 192 208 226 229 230 231 235 235 234 229
169 201 194 190 193 215 240 276 288 291 282 188 219 260 273 197 165 152 137 117 87 53 27 17 12 14 20 22 19 22 21 16 16 190 176 178 206 238 245 260 258 247 241 236
187 180 183 183 192 203 235 232 251 263 330 354 248 303 280 328 133 119 109 103 82 64 44 21 13 15 21 25 20 27 26 28 25 30 73 66 52 22 8 334 304 291 279 268
185 171 173 186 208 186 237 228 217 209 125 279 196 263 260 220 201 163 140 109 90 71 56 37 24 22 21 17 18 29 33 36 32 36 52 58 54 30 351 334 332 328 323 313
189 177 174 197 212 186 215 209 194 144 133 319 277 222 271 206 214 208 193 160 124 101 86 63 42 34 27 21 26 29 37 39 33 39 48 55 51 34 7 6 7 1 351 353
190 185 178 189 199 189 166 75 52 44 66 281 224 185 265 207 207 195 196 179 148 133 117 96 63 48 36 28 30 32 39 36 29 34 38 44 42 32 26 17 10 1 351 352
165 160 179 153 136 144 116 103 65 352 332 251 229 191 247 225 199 178 179 175 164 158 145 128 100 69 51 42 37 39 46 39 30 35 36 35 37 37 33 19 8 3 353 345
146 173 193 165 157 160 163 148 167 192 215 264 245 227 254 281 182 145 145 155 163 167 163 156 147 119 78 58 49 49 52 45 34 35 33 32 34 34 26 18 9 1 349 335
146 178 122 116 132 135 148 191 187 158 230 258 265 275 310 39 113 129 143 157 176 180 176 168 158 136 102 68 57 59 61 49 36 32 31 30 26 26 19 12 6 358 349 343
133 135 164 128 101 110 161 162 129 159 195 241 281 274 262 178 158 155 167 179 190 189 182 173 164 148 99 75 68 62 62 53 38 33 30 29 22 19 13 9 2 352 343 339
116 120 121 141 179 175 169 170 152 160 180 175 250 273 239 208 188 178 186 190 192 189 182 176 167 125 92 78 69 64 56 47 35 26 23 22 14 10 8 2 351 341 335 334
133 112 118 179 230 187 180 180 151 165 217 173 194 268 290 236 187 178 188 199 201 185 169 152 128 102 91 84 74 64 50 40 26 18 19 17 14 11 7 357 348 343 339 337
133 112 108 95 322 249 206 184 157 137 128 162 193 265 322 54 124 163 180 198 193 163 137 115 101 98 96 89 77 62 43 27 15 15 17 19 17 10 2 353 348 347 345 342
112 104 149 177 196 171 182 185 161 141 167 205 222 242 292 99 133 173 209 209 172 144 133 117 105 99 92 82 71 56 32 16 13 15 20 21 9 359 352 349 347 345 343 341
86 100 108 129 137 149 167 184 183 187 190 198 228 224 240 229 232 240 227 167 135 134 127 119 116 107 92 78 62 45 26 13 11 15 21 10 356 352 351 348 343 341 339 337
69 113 112 86 41 95 237 234 222 222 211 228 260 269 238 233 202 125 151 146 145 140 128 124 120 114 101 85 62 39 20 6 8 18 12 358 356 354 349 342 339 336 333 330
82 112 115 148 9 23 274 239 210 210 204 192 224 247 243 81 67 68 168 156 150 143 134 127 122 118 114 96 62 31 7 5 13 15 3 358 355 349 342 338 335 330 327 325
109 93 104 114 97 227 234 280 209 197 228 227 242 287 36 109 97 30 25 136 135 130 126 127 136 139 115 63 30 11 13 15 12 5 356 353 349 342 336 332 327 323 322 322
89 121 116 124 186 274 302 317 87 150 56 3 28 58 87 113 69 17 23 95 126 131 138 149 157 138 94 53 23 24 20 11 5 356 349 345 341 335 331 326 321 318 320 318
48 85 111 131 169 233 244 269 265 109 82 10 56 71 112 114 10 275 165 122 126 136 145 142 118 89 66 34 29 35 15 3 351 340 334 331 328 324 320 314 312 314 315 312
88 79 114 143 207 263 258 275 15 141 211 340 38 42 42 37 233 179 154 156 156 149 130 103 83 64 39 26 34 22 1 341 324 320 319 318 315 312 310 310 312 313 314 313
160 149 167 148 187 252 282 76 115 159 156 69 52 45 71 145 161 166 176 171 155 131 106 94 80 46 21 21 23 359 331 312 310 311 311 309 307 307 318 312 309 310 311 311
188 183 178 183 201 206 103 129 145 144 148 163 166 187 177 194 209 205 186 151 130 120 112 95 70 18 358 359 360 327 307 308 312 311 307 303 302 299 302 307 312 314 312 312
262 181 163 222 246 168 154 144 151 167 185 202 202 213 227 245 248 202 148 141 135 124 113 90 34 344 324 319 315 300 300 307 309 304 300 299 303 308 309 308 309 310 311 311
231 183 181 243 264 108 142 181 197 199 197 196 202 209 239 242 206 158 145 138 128 121 118 106 319 303 299 303 303 301 301 303 301 297 295 300 303 308 312 309 304 306 297 306
216 187 183 226 230 180 210 206 174 182 207 214 206 197 128 158 161 136 128 123 124 132 142 312 312 303 298 300 297 295 293 295 299 306 308 306 307 306 306 308 310 307 310 315